Miscellaneous Local Product
Issued by NWS Hastings, NE

Home | Current Version | Previous Version | Graphics & Text | Print | Product List | Glossary On
Versions: 1 2 3 4 5 6 7 8 9 10 11 12 13 14 15 16 17 18 19 20 21 22 23 24 25 26 27 28 29 30 31 32 33 34 35 36 37 38 39 40 41 42 43 44 45 46 47 48 49 50
000
AXUS43 KGID 011410
MISGRI

GID CWA HOURLY WEATHER ROUNDUP
NATIONAL WEATHER SERVICE HASTINGS NE
900 AM CDT WED OCT 01 2014

NOTE: "FAIR" INDICATES FEW OR NO CLOUDS BELOW 12,000 FEET WITH NO
SIGNIFICANT WEATHER AND/OR OBSTRUCTIONS TO VISIBILITY.

...SOUTH CENTRAL NEBRASKA...

CITY           SKY/WX    TMP DP  RH WIND       PRES   REMARKS
GRAND ISLAND   MOSUNNY   63  61  93 SE6       29.75S FOG
HASTINGS       MOSUNNY   63  59  87 SE5       29.76S FOG
KEARNEY        CLOUDY    57  57 100 S5        29.77S VSB 1/4
ORD            MOSUNNY   60  57  89 NW5       29.74R
YORK           MOSUNNY   63  61  94 E7        29.76F
AURORA         FOG       61  61 100 E7        29.76S VSB<1/4
LEXINGTON      FOG       54  54  97 N5        29.78R VSB 1/4
HOLDREGE       FOG       56  55  96 CALM      29.78R VSB<1/4
HEBRON         CLOUDY    64  62  94 N7        29.76R FOG

...NEBRASKA PANHANDLE...

CITY           SKY/WX    TMP DP  RH WIND       PRES   REMARKS
CHADRON        SUNNY     50  46  86 SW7       29.85R
ALLIANCE       SUNNY     44  42  93 W5        29.86R
SCOTTSBLUFF    SUNNY     47  45  93 W5        29.88R
SIDNEY         PTSUNNY   49  42  77 NW8       29.88R

...WESTERN AND NORTH CENTRAL NEBRASKA...

CITY           SKY/WX    TMP DP  RH WIND       PRES   REMARKS
VALENTINE      SUNNY     52  47  83 NW7       29.81R
AINSWORTH      SUNNY     54  47  78 CALM      29.79S
ONEILL         PTSUNNY   60  55  81 CALM      29.75R
BROKEN BOW     PTSUNNY   60  52  74 NW7       29.77R
IMPERIAL       SUNNY     52  44  74 NW10      29.83S
NORTH PLATTE   SUNNY     53  49  86 NW7       29.81R
MCCOOK         MOSUNNY   53  52  96 W3        29.82R FOG

...EASTERN NEBRASKA...

CITY           SKY/WX    TMP DP  RH WIND       PRES   REMARKS
NORFOLK        MOSUNNY   62  59  90 E8        29.73F
SO SIOUX CITY  MOSUNNY   63  61  93 CALM      29.76R FOG
TEKAMAH        MOSUNNY   63  61  93 CALM      29.76R
COLUMBUS       PTSUNNY   61  57  88 E6        29.77S
ALBION         FOG       60  58  94 SE5       29.75R VSB 1
OMAHA EPPLEY   PTSUNNY   65  60  84 CALM      29.76R
OFFUTT AFB     CLOUDY    63  63 100 E5        29.75R
MILLARD        CLOUDY    64  62  91 CALM      29.76R
LINCOLN        CLOUDY    64  60  87 E5        29.77R
NEBRASKA CITY  CLOUDY    63  63 100 CALM      29.75S
BEATRICE       CLOUDY    66  64  94 CALM      29.74R
FALLS CITY     CLOUDY    65  63  93 SE7       29.75R

...NORTHERN KANSAS...

CITY           SKY/WX    TMP DP  RH WIND       PRES   REMARKS
GOODLAND       SUNNY     52  46  80 NW5       29.87R
HILL CITY      CLOUDY    60  59  96 N8        29.80R
NORTON         CLOUDY    59  57  94 N3        29.78S FOG
PHILLIPSBURG   CLOUDY    66  63  88 NE5       29.78R
SMITH CENTER   MOSUNNY   63  61  94 N5        29.77S
BELOIT         PTSUNNY   63  63 100 CALM      29.76R
HAYS           CLOUDY    57  54  88 N9        29.78R VSB<1/4
RUSSELL        FOG       61  60  97 E3        29.75R VSB 1/4
CONCORDIA      FOG       62  62 100 NW8       29.76R VSB 1/2
SALINA         SUNNY     68  63  84 CALM      29.75R
TOPEKA         MOSUNNY   70  66  87 S9        29.75S



USA.gov is the U.S. government's official web portal to all federal, state and local government web resources and services.